Date String (YYYY-MM-DD hh:mm:ss) UTC,Instrument flags,Ambient pressure (hPa),Sample flow (lpm),Bypass flow (lpm),Sample temperature (°C),Ambient temperature (°C),ASC tube jacket temperature (°C),LED temperature (°C),Box temperature (°C),Sample RH (%),Span deviation,Mass concentration (μg/m³),Mass concentration (μg/m³),Mass concentration (μg/m³)
DateTimeUTC,F1_M11,P_M11,Q1_M11,Q2_M11,T1_M11,T2_M11,T3_M11,T4_M11,T5_M11,U1_M11,ZSPAN_M11,X2_M11,X0_M11,X1_M11
2022-01-08 19:00:00,,0818.5,5.00,0.00,22.7,22.0,00.0,31.9,24.5,15.7,0000.0,0003.79,0006.83,0003.64
2022-01-08 19:01:00,,0818.5,4.99,0.00,22.7,22.1,00.0,31.9,24.4,15.6,0000.0,0003.80,0005.49,0003.63
2022-01-08 19:02:00,,0818.5,5.01,0.00,22.7,22.1,00.0,31.9,24.4,15.5,0000.0,0003.78,0005.43,0003.61
2022-01-08 19:03:00,,0818.6,5.00,0.00,22.7,22.1,00.0,31.9,24.4,15.5,0000.0,0003.79,0005.56,0003.62
2022-01-08 19:04:00,,0818.7,5.01,0.00,22.7,22.1,00.0,31.8,24.4,15.7,0000.0,0003.78,0005.67,0003.62
2022-01-08 19:05:00,,0818.7,4.99,0.00,22.7,22.1,00.0,31.8,24.4,15.6,0000.0,0003.75,0006.07,0003.61
2022-01-08 19:06:00,,0818.7,5.01,0.00,22.7,22.1,00.0,31.8,24.5,15.6,0000.0,0003.74,0007.80,0003.60
2022-01-08 19:07:00,,0818.7,5.00,0.00,22.7,22.1,00.0,31.8,24.5,15.8,0000.0,0003.74,0008.00,0003.60
2022-01-08 19:08:00,,0818.7,5.01,0.00,22.7,22.1,00.0,31.8,24.5,15.7,0000.0,0003.74,0007.96,0003.61
2022-01-08 19:09:00,,0818.7,4.99,0.00,22.7,22.1,00.0,31.8,24.5,15.6,0000.0,0003.76,0007.96,0003.62
2022-01-08 19:10:00,,0818.7,5.01,0.00,22.7,22.1,00.0,31.8,24.5,15.6,0000.0,0003.80,0008.07,0003.65
2022-01-08 19:11:00,,0818.6,5.00,0.00,22.7,22.1,00.0,31.8,24.5,15.6,0000.0,0003.85,0008.21,0003.70
2022-01-08 19:12:00,,0818.6,5.00,0.00,22.7,22.1,00.0,31.8,24.5,15.6,0000.0,0003.87,0008.41,0003.72
2022-01-08 19:13:00,,0818.7,5.00,0.00,22.7,22.1,00.0,31.8,24.5,15.5,0000.0,0003.90,0008.47,0003.75
2022-01-08 19:14:00,,0818.7,5.01,0.00,22.7,22.1,00.0,31.8,24.5,15.7,0000.0,0003.91,0008.69,0003.77
2022-01-08 19:15:00,,0818.7,5.00,0.00,22.7,22.1,00.0,31.8,24.5,16.0,0000.0,0003.92,0008.70,0003.79
2022-01-08 19:16:00,,0818.7,4.99,0.00,22.7,22.2,00.0,31.8,24.5,15.8,0000.0,0003.97,0008.62,0003.82
2022-01-08 19:17:00,,0818.6,5.01,0.00,22.7,22.2,00.0,31.8,24.5,15.7,0000.0,0004.01,0007.93,0003.86
2022-01-08 19:18:00,,0818.5,5.00,0.00,22.8,22.2,00.0,31.8,24.5,15.9,0000.0,0004.05,0007.74,0003.89
2022-01-08 19:19:00,,0818.6,5.00,0.00,22.8,22.3,00.0,31.8,24.6,15.8,0000.0,0004.09,0007.79,0003.93
2022-01-08 19:20:00,,0818.6,5.00,0.00,22.8,22.4,00.0,31.8,24.6,15.8,0000.0,0004.15,0008.06,0003.98
2022-01-08 19:21:00,,0818.7,4.99,0.00,22.9,22.4,00.0,31.8,24.7,15.6,0000.0,0004.21,0008.17,0004.03
2022-01-08 19:22:00,,0818.8,5.01,0.00,22.9,22.5,00.0,31.8,24.8,15.4,0000.0,0004.25,0008.13,0004.08
2022-01-08 19:23:00,,0818.8,4.99,0.00,23.0,22.5,00.0,31.8,24.8,15.2,0000.0,0004.37,0008.12,0004.19
2022-01-08 19:24:00,,0818.7,5.00,0.00,23.0,22.6,00.0,31.9,24.9,15.5,0000.0,0004.43,0008.15,0004.24
2022-01-08 19:25:00,,0818.7,5.01,0.00,23.0,22.6,00.0,31.9,24.9,16.1,0000.0,0004.44,0007.99,0004.24
2022-01-08 19:26:00,,0818.7,4.99,0.00,23.1,22.7,00.0,31.9,25.0,16.0,0000.0,0004.44,0007.87,0004.23
2022-01-08 19:27:00,,0818.8,4.99,0.00,23.1,22.7,00.0,31.9,25.0,15.9,0000.0,0004.42,0007.91,0004.21
2022-01-08 19:28:00,,0818.8,5.01,0.00,23.2,22.8,00.0,32.0,25.1,15.9,0000.0,0004.42,0007.92,0004.19
2022-01-08 19:29:00,,0818.8,4.99,0.00,23.2,22.8,00.0,32.0,25.1,15.5,0000.0,0004.44,0007.93,0004.18
2022-01-08 19:30:00,,0818.9,5.01,0.00,23.2,22.8,00.0,32.0,25.2,14.9,0000.0,0004.48,0008.05,0004.20
2022-01-08 19:31:00,,0818.8,5.01,0.00,23.3,22.8,00.0,32.1,25.1,14.7,0000.3,0004.51,0008.00,0004.23
2022-01-08 19:32:00,,0818.8,4.99,0.00,23.3,22.9,00.0,32.1,25.2,14.7,0000.1,0004.54,0007.91,0004.26
2022-01-08 19:33:00,,0818.8,5.01,0.00,23.3,22.9,00.0,32.1,25.2,15.0,-000.1,0004.59,0008.45,0004.28
2022-01-08 19:34:00,,0818.8,4.99,0.00,23.3,22.9,00.0,32.1,25.2,15.0,0000.0,0004.57,0008.87,0004.24
2022-01-08 19:35:00,,0818.8,4.99,0.00,23.4,22.9,00.0,32.2,25.2,15.2,0000.0,0004.59,0009.48,0004.24
2022-01-08 19:36:00,,0818.8,5.00,0.00,23.4,22.9,00.0,32.2,25.2,15.2,0000.0,0004.65,0009.58,0004.28
2022-01-08 19:37:00,,0818.8,5.00,0.00,23.4,22.9,00.0,32.2,25.2,15.3,-000.1,0004.73,0009.67,0004.34
2022-01-08 19:38:00,,0818.8,4.99,0.00,23.4,23.0,00.0,32.2,25.3,15.0,0000.0,0004.80,0009.69,0004.43
2022-01-08 19:39:00,,0818.8,5.00,0.00,23.4,23.0,00.0,32.3,25.3,14.9,0000.4,0004.90,0009.50,0004.54
2022-01-08 19:40:00,,0818.8,5.01,0.00,23.5,23.0,00.0,32.3,25.3,14.9,0000.0,0005.00,0009.84,0004.64
2022-01-08 19:41:00,,0818.8,4.98,0.00,23.5,23.0,00.0,32.3,25.3,14.9,0000.7,0005.10,0010.11,0004.74
2022-01-08 19:42:00,,0818.9,5.00,0.00,23.5,23.0,00.0,32.3,25.3,15.0,0000.3,0005.14,0010.35,0004.79
2022-01-08 19:43:00,,0818.9,5.00,0.00,23.5,23.0,00.0,32.4,25.3,15.0,0000.0,0005.17,0010.37,0004.81
2022-01-08 19:44:00,,0818.9,5.01,0.00,23.5,23.1,00.0,32.4,25.3,15.0,-000.1,0005.17,0010.04,0004.83
2022-01-08 19:45:00,,0818.9,5.01,0.00,23.6,23.1,00.0,32.4,25.4,15.0,-000.7,0005.23,0009.66,0004.89
2022-01-08 19:46:00,,0818.9,5.00,0.00,23.6,23.1,00.0,32.4,25.4,15.0,-000.7,0005.28,0009.23,0004.97
2022-01-08 19:47:00,,0818.9,4.98,0.00,23.6,23.1,00.0,32.4,25.4,14.8,-000.8,0005.34,0009.23,0005.04
2022-01-08 19:48:00,,0818.9,5.01,0.00,23.6,23.1,00.0,32.5,25.5,14.9,-000.8,0005.39,0009.29,0005.10
2022-01-08 19:49:00,,0818.9,5.00,0.00,23.6,23.1,00.0,32.5,25.5,14.9,-000.5,0005.44,0009.36,0005.15
2022-01-08 19:50:00,,0818.9,5.01,0.00,23.6,23.1,00.0,32.5,25.5,14.7,-000.3,0005.44,0009.37,0005.15
2022-01-08 19:51:00,,0818.9,5.00,0.00,23.6,23.1,00.0,32.5,25.5,14.7,-000.5,0005.42,0008.91,0005.15
2022-01-08 19:52:00,,0818.9,5.00,0.00,23.6,23.1,00.0,32.5,25.5,14.6,-000.3,0005.37,0008.64,0005.13
2022-01-08 19:53:00,,0819.0,5.00,0.00,23.6,23.1,00.0,32.5,25.5,14.6,-000.2,0005.35,0008.40,0005.11
2022-01-08 19:54:00,,0818.9,5.00,0.00,23.6,23.1,00.0,32.6,25.5,14.6,0000.3,0005.33,0008.34,0005.10
2022-01-08 19:55:00,,0818.9,5.00,0.00,23.6,23.1,00.0,32.6,25.4,14.8,0000.0,0005.33,0008.41,0005.09
2022-01-08 19:56:00,,0818.9,4.99,0.00,23.6,23.0,00.0,32.6,25.4,14.9,0000.0,0005.28,0008.26,0005.05
2022-01-08 19:57:00,,0819.0,5.00,0.00,23.6,23.0,00.0,32.6,25.4,14.8,0000.0,0005.23,0008.43,0005.00
2022-01-08 19:58:00,,0818.9,5.01,0.00,23.6,23.0,00.0,32.6,25.4,14.9,0000.0,0005.17,0008.30,0004.96
2022-01-08 19:59:00,,0818.9,5.00,0.00,23.6,23.0,00.0,32.6,25.4,14.9,0000.0,0005.15,0008.25,0004.94
